User: anonymous   Login
Location: Brabourne
(51.1333°N, 1.0000°E)
Time: 19:18:13
(UTC+00:00)
Language:

Cosmos 2026 Rocket - Orbit

View from above orbital plane
View from above orbital plane
View from above satellite
View from above satellite

Ground track
Ground track

The orbit data is extracted from the following two-line orbital elements,

1 20046U 89042B   22024.38747779  .00000034  00000-0  17989-4 0  9992
2 20046  82.9386 129.4118 0042519  32.9483 327.4312 13.78250492640751
Epoch (UTC): 24 January 2022 09:17:58
Eccentricity: 0.0042519
inclination: 82.9386°
perigee height: 939 km
apogee height: 1001 km
right ascension of ascending node: 129.4118°
argument of perigee: 32.9483°
revolutions per day: 13.78250492
mean anomaly at epoch: 327.4312°
orbit number at epoch: 64075

The dashed part of the orbit path shows where the satellite is in the earth's shadow,  

DLR